Other Public Products
Issued by NWS Grand Forks, ND

Home | Current Version | Previous Version | Graphics & Text | Print | Product List | Glossary On
Versions: 1 2 3 4 5 6 7 8 9 10 11 12 13 14 15 16 17 18 19 20 21 22 23 24 25 26 27 28 29 30 31 32 33 34 35 36 37 38 39 40 41 42 43 44 45 46 47 48 49 50
000
FPUS83 KFGF 300410
OPUFGF
PRAIRIE TO PINES WEATHER ROUNDUP
NATIONAL WEATHER SERVICE EASTERN NORTH DAKOTA/GRAND FORKS ND
1100 PM CDT THU SEP 29 2016

 **SATELLITE DATA USED TO AUGMENT SKY COVER AT AUTOMATED STATIONS**
 *****  WEATHER ACROSS EASTERN NORTH DAKOTA  *****

CITY           SKY/WX    TMP DP  RH WIND       PRES   REMARKS
GRAND FORKS    CLEAR     52  45  77 SE9       30.37R
GRAND FORKS AF CLEAR     52  45  78 S8        30.36S
GRAND CITY NWS   N/A     50 N/A N/A SE7         N/A
BUXTON         NOT AVBL
DEVILS LAKE    CLEAR     55  47  74 SE12      30.33S
FARGO          CLEAR     52  45  77 E8        30.38S
WAHPETON ARPT  CLEAR     50  43  76 E6        30.39R
$$

 *****  WEATHER ACROSS CENTRAL AND WESTERN NORTH DAKOTA  *****

CITY           SKY/WX    TMP DP  RH WIND       PRES   REMARKS
JAMESTOWN      CLEAR     52  45  77 SE9       30.32S
BISMARCK       CLEAR     55  45  68 SE12      30.25F
MINOT          CLEAR     53  46  77 E9        30.23S
MINOT AFB      CLEAR     51  46  81 SE9       30.22S
GARRISON         N/A     55  46  71 SE15      30.22S
WILLISTON      PTCLDY    63  43  48 SE9       30.13S
DICKINSON      PTCLDY    56  41  57 SE17G24   30.15S
HETTINGER      MOCLDY    59  42  53 SE15G23   30.18F
$$

 *****  OTHER OBSERVATIONS NORTHEAST NORTH DAKOTA  *****

CITY           SKY/WX    TMP DP  RH WIND       PRES   REMARKS
WALHALLA       FAIR      52  48  87 CALM      30.36S
LANGDON        FAIR      50  46  87 SE12      30.35S
CAVALIER       FAIR      54  46  76 SE5       30.36S
GRAFTON        FAIR      52  48  87 SE10      30.38S
CANDO          FAIR      48  48 100 SE8       30.34S
FORT TOTTEN      N/A     54  46  74 SE7       29.95S
ROLLA          FAIR      50  46  87 SE14      30.31F
RUGBY          FAIR      54  48  82 SE13      30.28F
 ***** THE ABOVE OBSERVATIONS ARE NON NWS ARE NOT QUALITY
        CONTROLLED AND MAY MIS-REPORT RAIN FOR SNOW...
$$

 *****  OTHER OBSERVATIONS SOUTHEAST NORTH DAKOTA *****

CITY           SKY/WX    TMP DP  RH WIND       PRES   REMARKS
COOPERSTOWN    FAIR      50  45  81 SE9       30.36S
VALLEY CITY    FAIR      50  48  93 SE7       30.37S
OAKES          NOT AVBL
GWINNER        FAIR      46  45  93 SE7       30.36S
SHEYENNE NWR     N/A     44  41  89 E6        29.95S
BUFFALO        NOT AVBL
WYNDMERE       NOT AVBL
 ***** THE ABOVE OBSERVATIONS ARE NON NWS ARE NOT QUALITY
       CONTROLLED AND MAY MIS-REPORT RAIN FOR SNOW...
$$

  *****  WEATHER ACROSS NORTHERN MINNESOTA  *****

CITY           SKY/WX    TMP DP  RH WIND       PRES   REMARKS
FLAG ISLAND    CLEAR     55  48  76 SE13      30.41S
WARROAD        CLEAR     48  45  87 SE6       30.43S
ROSEAU         CLEAR     50  45  81 SE5       30.42S HAZE
HALLOCK        CLEAR     52  46  82 SE10      30.38S
THF RVR FALLS  CLEAR     49  44  83 SE7       30.42R
HALSTAD          N/A     49  45  83 SE8         N/A
FOSSTON        CLEAR     46  43  87 SE5       30.43R
BAUDETTE       CLOUDY    54  47  77 SE6       30.44S
WASKISH        CLOUDY    54  48  82 E5        30.44S
CROOKSTON      CLEAR     52  46  82 SE9       30.40S
$$
  *****  WEATHER ACROSS CENTRAL AND WEST MINNESOTA  *****

CITY           SKY/WX    TMP DP  RH WIND       PRES   REMARKS
BEMIDJI        CLOUDY    53  47  81 SE5       30.43S
PARK RAPIDS    CLEAR     53  46  77 E6        30.42S
WADENA         CLEAR     46  45  93 NE5       30.42R
DETROIT LAKES  CLEAR     52  45  76 SE5       30.42S
MOORHEAD       CLEAR     50  45  81 E6        30.39F
FERGUS FALLS   CLEAR     54  46  76 E6        30.42S
ELBOW LAKE     FAIR      51  47  88 SE8       30.40S
MORRIS MN      CLEAR     48  46  93 E8        30.38S
STAPLES        CLEAR     46  45  93 CALM      30.42S
WHEATON        NOT AVBL
$$
  *****  WEATHER ELSEWHERE ACROSS MINNESOTA  *****

CITY           SKY/WX    TMP DP  RH WIND       PRES   REMARKS
DULUTH         FOG       50  50 100 E9        30.46S VSB 1
INTRNTL FALLS  CLOUDY    52  46  80 SE3       30.46S
ELY            CLEAR     45  45 100 CALM      30.48S
CLOQUET        CLOUDY    52  48  87 E9        30.45F FOG
BRAINERD       CLEAR     49  46  90 E5        30.43S
HIBBING        CLEAR     42  42 100 CALM      30.46S
ALEXANDRIA     CLEAR     49  47  93 E5        30.42R
SAINT CLOUD    CLEAR     52  50  93 E6        30.41R
MINNEAPOLIS    CLEAR     57  51  80 NE6       30.39S
$$

  *****  WEATHER ACROSS SOUTH DAKOTA  *****

CITY           SKY/WX    TMP DP  RH WIND       PRES   REMARKS
SIOUX FALLS    CLEAR     50  45  83 E5        30.36S
BROOKINGS      CLEAR     52  47  83 SE8       30.36S
WATERTOWN      CLEAR     54  46  74 SE6       30.36S
HURON          CLEAR     52  45  77 SE8       30.32S
SISSETON         N/A     46  44  93 S5        30.36S
ABERDEEN       CLEAR     49  44  83 SE5       30.33S
MITCHELL       CLEAR     50  45  83 SE6       30.34S
PIERRE         CLEAR     57  45  64 SE15      30.26S
MOBRIDGE       CLEAR     59  45  59 SE17G24   30.24S
RAPID CITY     PTCLDY    60  44  55 SE10      30.19S
$$

  *****  SOME WEATHER IN NEARBY STATES *****

CITY           SKY/WX    TMP DP  RH WIND       PRES   REMARKS
GLASGOW MT     CLEAR     63  48  58 E12       30.00S
GREAT FALLS MT CLEAR     63  48  58 E12       30.03F
CHEYENNE WY    CLOUDY    61  39  44 CALM      30.31S
SCOTTSBLUFF NE CLOUDY    61  42  49 SE17      30.24S
OMAHA NE       CLEAR     53  46  77 NW6       30.34S
DES MOINES IA  CLEAR     61  48  62 NE8       30.31S
DAVENPORT IA   CLEAR     56  52  86 N6        30.27R
CHICAGO IL     LGT RAIN  61  58  90 NE13      30.21F
EAU CLAIRE WI  CLEAR     56  53  90 NE7       30.39S
LA CROSSE WI   CLEAR     56  53  90 E5        30.35S
$$

  *****  SOME NATIONAL WEATHER *****

CITY           SKY/WX    TMP DP  RH WIND       PRES   REMARKS
LA GUARDIA NY  LGT RAIN  61  54  77 NE26G36   30.36S
RALEIGH NC     CLOUDY    73  71  93 SE7       30.03F
ATLANTA GA     CLEAR     62  47  57 NW10      30.05F
NEW ORLEANS LA CLEAR     76  54  46 N13G21    30.11S
OKLAHOMA CITY  PTCLDY    61  49  64 N6        30.29S
ALBUQUERQUE NM LGT RAIN  61  57  87 NE5       30.40F
SALT LAKE CITY PTCLDY    65  51  60 SE7       30.18S
LOS ANGELES CA PTCLDY    71  59  65 W8        30.01R
BOISE ID       PTCLDY    74  41  30 E13       29.97S
SEATTLE WA     CLOUDY    60  42  51 NE9       30.06F
$$

*** WEATHER ACROSS MANITOBA...SASKATCHEWAN AND ONTARIO ***
                ***ONTARIO***

CITY           SKY/WX    TMP DP  RH WIND       PRES   REMARKS
GERALDTON      CLEAR     46  45  93 E3        30.52S
THUNDER BAY    PTCLDY    43  43 100 W3        30.50S
SIOUX LOOKOUT  CLOUDY    52  45  76 S5        30.48S
TORONTO        LGT RAIN  61  54  77 E13G22    30.35S
BIG TROUT LK   CLOUDY    55  48  76 SW5       30.42S
PICKLE LAKE    NOT AVBL
DRYDEN         CLOUDY    52  46  82 SE5       30.47S
KENORA         CLEAR     50  46  87 SE6       30.44S
$$
                *** MANITOBA***

CITY           SKY/WX    TMP DP  RH WIND       PRES   REMARKS
BRANDON        PTCLDY    50  46  87 SE8       30.29S
DAUPHIN        CLEAR     54  46  76 VRB3      30.24S
ISLAND LAKE    CLOUDY    54  50  87 S6        30.36F
PILOT MOUND      N/A     50  45  81 SE13        N/A
THE PAS        CLOUDY    54  52  94 E9        30.19F
THOMPSON       PTCLDY    46  45  93 CALM      30.29S
WINNIPEG       CLEAR     54  46  76 SE12      30.36S
LYNN LAKE      CLEAR     45  39  81 S3        30.25S
CHURCHILL      PTCLDY    46  37  71 W9        30.23R
GILLAM         MOCLDY    48  39  71 S5        30.32S
$$
                ***SASKATCHEWAN***

CITY           SKY/WX    TMP DP  RH WIND       PRES   REMARKS
ESTEVAN        PTCLDY    52  45  76 E13       30.16F
KINDERSLEY     PTCLDY    48  46  93 NE13      30.06F
LLOYDMINSTER   PTCLDY    50  41  71 NE3       30.12R
PRINCE ALBERT  PTCLDY    48  45  87 NE5       30.12F
REGINA         MOCLDY    59  46  63 SE17      30.11S
YORKTON        CLEAR     55  46  71 SE14G20   30.16F  C1F1C2F2C3F3C4F4C5F5C6F6C7F7C8F8C9F9CaFaCbFbCcFcCdFdCe!


USA.gov is the U.S. government's official web portal to all federal, state and local government web resources and services.